Regional Weather Roundup
Issued by NWS

Home | Current Version | Previous Version | Text Only | Print | Product List | Glossary On
Versions: 1 2 3 4 5 6 7 8 9 10 11 12 13 14 15 16 17 18 19 20 21 22 23 24 25 26 27 28 29 30 31 32 33 34 35 36 37 38 39 40 41 42 43 44 45 46 47 48 49 50
000
ASUS43 KTOP 271408
RWRKS

WEATHER ROUNDUP FOR KANSAS
NATIONAL WEATHER SERVICE GOODLAND KS
900 AM CDT WED MAY 27 2015

NOTE:  "FAIR" INDICATES FEW OR NO CLOUDS BELOW 12,000 FEET WITH NO
SIGNIFICANT WEATHER AND/OR OBSTRUCTIONS TO VISIBILITY.

KSZ001>006-013>018-027>032-041>047-271500-
NORTHWEST KANSAS

CITY           SKY/WX    TMP DP  RH WIND       PRES   REMARKS
GOODLAND       CLOUDY    56  52  86 S13       30.09R
HAYS           PTSUNNY   66  52  59 SE9       30.08S
HILL CITY      PTSUNNY   62  53  72 CALM      30.09R
RUSSELL        PTSUNNY   68  56  65 E9        30.06S
$$

KSZ061>065-074>080-084>089-271500-
SOUTHWEST KANSAS

CITY           SKY/WX    TMP DP  RH WIND       PRES   REMARKS
DODGE CITY     CLOUDY    65  60  84 E6        30.07S
ELKHART          N/A     67  57  70 S12         N/A
GARDEN CITY    PTSUNNY   63  58  83 CALM      30.07R
GREAT BEND     PTSUNNY   66  54  63 E8        30.07S
LIBERAL        SUNNY     68  61  77 S8        30.08R
PRATT          PTSUNNY   64  54  68 E8        30.09R
$$

KSZ066>073-081>083-090>101-271500-
SOUTHEAST KANSAS

CITY           SKY/WX    TMP DP  RH WIND       PRES   REMARKS
CHANUTE        SUNNY     71  61  70 E5        30.08R
COFFEYVILLE    SUNNY     71  66  84 CALM      30.07R
HUTCHINSON     PTSUNNY   69  55  60 E10       30.07R
MEDICINE LODGE   N/A     65  62  90 SE6       30.07R
NEWTON         MOSUNNY   68  54  60 NE6       30.10R
PARSONS        SUNNY     73  67  81 N5        30.08S
WICHITA INTL   PTSUNNY   68  59  73 E9        30.07R
WICHITA JABRA  MOSUNNY   68  58  70 E7        30.07R
WICHITA MCCONL PTSUNNY   67  61  78 E7        30.07R
WINFIELD       MOSUNNY   70  63  78 E6        30.08R
$$

KSZ007>012-019>026-033>040-048>060-102>105-271500-
NORTHEAST KANSAS

CITY           SKY/WX    TMP DP  RH WIND       PRES   REMARKS
CONCORDIA      SUNNY     68  57  68 CALM      30.09R
EMPORIA        SUNNY     69  58  67 NE5       30.08R
LAWRENCE       SUNNY     66  59  78 NW5       30.08S
MANHATTAN      SUNNY     64  59  83 S3        30.08S
MARYSVILLE     SUNNY     64  54  68 CALM      30.09R
OLATHE IND     SUNNY     69  56  62 CALM      30.09R
OLATHE EXE     SUNNY     71  55  56 N6        30.08R
SALINA         MOSUNNY   69  56  62 CALM      30.08S
TOPEKA BILLARD SUNNY     68  58  70 CALM      30.08S
TOPEKA FORBES  SUNNY     69  58  67 CALM      30.08S
$$


USA.gov is the U.S. government's official web portal to all federal, state and local government web resources and services.